Location: Sungai Dangang
(2.7500°N, 113.8333°E)
Time: 04:53:12
(UTC+00:00)

IRAS Rocket - Pass Details

Date: 16 May 2021
Orbit: 847 x 878 km, 100.1° (Epoch: 16 June)

Event Time Altitude Azimuth Distance (km) Brightness Sun altitude
Rises 21:27:32 0° 178° (S) 3,423 7.2 -11.7°
Reaches altitude 10° 21:29:59 10° 184° (S) 2,490 6.4 -11.1°
Maximum altitude 21:35:14 46° 256° (WSW) 1,147 4.5 -9.9°
Drops below altitude 10° 21:40:31 10° 328° (NNW) 2,502 6.5 -8.6°
Sets 21:43:00 0° 335° (NNW) 3,442 7.3 -8.1°
